Cozumel, Mexico

11:26 PM EST on August 17, 2017 (GMT -0500)
Cozumel

Weather History for MMCZ - February, 2014

Change the Weather History Date:

Friday, February 14, 2014

  Actual Average Record
Temperature  
Mean Temperature 63 °F -  
Max Temperature 75 °F 82 °F 87 °F (2007)
Min Temperature 51 °F 70 °F 51 °F (2014)
Degree Days  
Heating Degree Days 2    
Growing Degree Days 13 (Base 50)    
Moisture  
Dew Point 59 °F    
Average Humidity 84    
Maximum Humidity 100    
Minimum Humidity 61    
Precipitation  
Precipitation 0.00 in - - ()
Sea Level Pressure  
Sea Level Pressure 30.01 in    
Wind  
Wind Speed 2 mph ()    
Max Wind Speed 7 mph    
Max Gust Speed -    
Visibility 8.1 miles    
Events      
Averages and records for this station are not official NWS values.
T = Trace of Precipitation, MM = Missing Value Source: Averaged Metar Reports

Daily Weather History Graph

Daily Weather History Graph

Search for Another Location

Airport or City:

Trip Planner

Search our weather history database for the weather conditions in past years. The results will help you decide how hot, cold, wet, or windy it might be!

Date:

Astronomy

Feb. 14, 2014 Rise Set
Actual Time 6:17 AM CST 5:46 PM CST
Civil Twilight 5:55 AM CST 6:08 PM CST
Nautical Twilight 5:29 AM CST 6:34 PM CST
Astronomical Twilight 5:03 AM CST 7:00 PM CST
Moon 5:42 PM CST (2/14) 5:48 AM CST (2/14)
Length of Visible Light 12h 13m
Length of Day
11h 28m
Full, 100% of the Moon is Illuminated
Feb 14
Full
Feb 14
Full
Feb 22
Last Quarter
Mar 1
New
Mar 8
First Quarter

Hourly Weather History & Observations

Time (CST) Temp. Dew Point Humidity Pressure Visibility Wind Dir Wind Speed Gust Speed Precip Events Conditions
12:51 AM 62.6 °F 57.2 °F 82% 30.00 in 7.0 mi NNE 3.5 mph - N/A   Clear
1:46 AM 59.0 °F 57.2 °F 94% 29.99 in 7.0 mi Calm Calm - N/A   Clear
2:44 AM 55.4 °F 55.4 °F 100% 30.01 in 7.0 mi Calm Calm - N/A   Clear
3:44 AM 53.6 °F 53.6 °F 100% 29.98 in 7.0 mi Calm Calm - N/A   Clear
4:41 AM 51.8 °F 51.8 °F 100% 29.99 in 7.0 mi Calm Calm - N/A   Clear
5:40 AM 51.8 °F 51.8 °F 100% 29.99 in 7.0 mi Calm Calm - N/A   Clear
6:40 AM 51.8 °F 51.8 °F 100% 30.02 in 8.0 mi Calm Calm - N/A   Clear
7:46 AM 62.6 °F 60.8 °F 94% 30.05 in 8.0 mi Calm Calm - N/A   Clear
8:41 AM 69.8 °F 59.0 °F 68% 30.09 in 8.0 mi NNW 4.6 mph - N/A   Clear
9:43 AM 69.8 °F 59.0 °F 68% 30.08 in 8.0 mi NNW 4.6 mph - N/A   Clear
10:41 AM 69.8 °F 59.0 °F 68% 30.06 in 8.0 mi NW 6.9 mph - N/A   Clear
11:40 AM 71.6 °F 59.0 °F 64% 30.04 in 8.0 mi WNW 5.8 mph - N/A   Clear
12:48 PM 73.4 °F 60.8 °F 65% 30.02 in 10.0 mi SW 5.8 mph - N/A   Clear
1:43 PM 73.4 °F 60.8 °F 65% 29.99 in 10.0 mi WSW 3.5 mph - N/A   Clear
2:46 PM 75.2 °F 60.8 °F 61% 29.99 in 10.0 mi WNW 3.5 mph - N/A   Clear
3:50 PM 75.2 °F 60.8 °F 61% 29.97 in 10.0 mi WNW 3.5 mph - N/A   Clear
4:44 PM 73.4 °F 62.6 °F 69% 29.96 in 10.0 mi Calm Calm - N/A   Clear
5:41 PM 69.8 °F 62.6 °F 78% 29.96 in 10.0 mi Calm Calm - N/A   Clear
6:45 PM 66.2 °F 62.6 °F 88% 29.98 in 8.0 mi South 3.5 mph - N/A   Clear
7:40 PM 64.4 °F 62.6 °F 94% 29.99 in 8.0 mi SSE 3.5 mph - N/A   Clear
8:44 PM 62.6 °F 60.8 °F 94% 30.04 in 8.0 mi Calm Calm - N/A   Clear
9:42 PM 60.8 °F 60.8 °F 100% 30.02 in 7.0 mi Calm Calm - N/A   Clear
10:40 PM 57.2 °F 57.2 °F 100% 30.03 in 7.0 mi Calm Calm - N/A   Clear
11:52 PM 57.2 °F 57.2 °F 100% 30.00 in 7.0 mi Calm Calm - N/A   Clear